Date String (YYYY-MM-DD hh:mm:ss) UTC,Instrument flags,Ambient pressure (hPa),Sample flow (lpm),Bypass flow (lpm),Sample temperature (°C),Ambient temperature (°C),ASC tube jacket temperature (°C),LED temperature (°C),Box temperature (°C),Sample RH (%),Span deviation,Mass concentration (μg/m³),Mass concentration (μg/m³),Mass concentration (μg/m³)
DateTimeUTC,F1_M11,P_M11,Q1_M11,Q2_M11,T1_M11,T2_M11,T3_M11,T4_M11,T5_M11,U1_M11,ZSPAN_M11,X0_M11,X2_M11,X1_M11
2022-12-29 07:00:00,,0813.1,4.96,0.00,21.4,21.9,00.0,30.0,23.3,21.0,0000.0,0001.01,0000.84,0000.83
2022-12-29 07:01:00,,0813.1,5.01,0.00,21.4,21.4,00.0,30.1,23.2,20.9,0000.0,0001.02,0000.84,0000.83
2022-12-29 07:02:00,,0813.2,5.02,0.00,21.4,21.1,00.0,30.1,23.1,21.0,0000.0,0001.02,0000.84,0000.84
2022-12-29 07:03:00,,0813.1,5.00,0.00,21.4,20.8,00.0,30.1,23.0,20.9,0000.0,0001.01,0000.84,0000.83
2022-12-29 07:04:00,,0813.1,5.00,0.00,21.4,20.4,00.0,30.2,23.0,20.8,0000.0,0000.98,0000.81,0000.81
2022-12-29 07:05:00,,0813.1,4.98,0.00,21.3,20.2,00.0,30.2,22.9,20.8,0000.0,0000.93,0000.77,0000.77
2022-12-29 07:06:00,,0813.1,4.98,0.00,21.3,19.9,00.0,30.2,22.8,20.7,0000.0,0000.87,0000.73,0000.72
2022-12-29 07:07:00,,0813.1,4.99,0.00,21.3,19.8,00.0,30.2,22.8,20.7,0000.0,0000.80,0000.67,0000.66
2022-12-29 07:08:00,,0813.2,5.08,0.00,21.2,19.8,00.0,30.2,22.8,20.7,0000.0,0000.74,0000.61,0000.61
2022-12-29 07:09:00,,0813.2,4.99,0.00,21.2,19.8,00.0,30.2,22.8,20.6,0000.0,0000.68,0000.56,0000.55
2022-12-29 07:10:00,,0813.2,5.02,0.00,21.2,19.8,00.0,30.2,22.8,20.6,0000.0,0000.63,0000.51,0000.50
2022-12-29 07:11:00,,0813.2,4.99,0.00,21.2,19.8,00.0,30.1,22.8,20.6,0000.0,0000.56,0000.47,0000.46
2022-12-29 07:12:00,,0813.2,4.98,0.00,21.2,19.8,00.0,30.1,22.8,20.6,0000.0,0000.53,0000.43,0000.42
2022-12-29 07:13:00,,0813.1,4.98,0.00,21.2,19.8,00.0,30.1,22.8,20.6,0000.0,0000.49,0000.39,0000.37
2022-12-29 07:14:00,,0813.1,4.98,0.00,21.2,19.8,00.0,30.1,22.8,20.6,0000.0,0000.48,0000.36,0000.34
2022-12-29 07:15:00,,0813.1,5.00,0.00,21.2,19.7,00.0,30.1,22.8,20.6,0000.0,0000.47,0000.35,0000.33
2022-12-29 07:16:00,,0813.1,4.99,0.00,21.2,20.3,00.0,30.1,22.9,20.6,0000.0,0000.49,0000.36,0000.33
2022-12-29 07:17:00,,0813.1,5.03,0.00,21.3,21.5,00.0,30.1,23.2,20.4,0000.0,0000.49,0000.36,0000.33
2022-12-29 07:18:00,,0813.1,5.01,0.00,21.5,22.4,00.0,30.1,23.6,20.2,0000.0,0000.50,0000.36,0000.33
2022-12-29 07:19:00,,0813.1,4.96,0.00,21.6,22.3,00.0,30.2,23.6,20.0,0000.0,0000.49,0000.35,0000.33
2022-12-29 07:20:00,,0813.1,4.98,0.00,21.6,21.7,00.0,30.3,23.5,19.9,0000.0,0000.47,0000.34,0000.31
2022-12-29 07:21:00,,0813.1,5.02,0.00,21.6,21.3,00.0,30.3,23.4,19.9,0000.0,0000.45,0000.32,0000.30
2022-12-29 07:22:00,,0813.1,5.02,0.00,21.6,20.9,00.0,30.3,23.3,19.9,0000.0,0000.44,0000.31,0000.28
2022-12-29 07:23:00,,0813.1,5.02,0.00,21.6,20.7,00.0,30.3,23.3,19.9,0000.0,0000.43,0000.29,0000.26
2022-12-29 07:24:00,,0813.1,4.96,0.00,21.6,20.5,00.0,30.4,23.3,19.9,0000.0,0000.41,0000.28,0000.25
2022-12-29 07:25:00,,0813.1,4.97,0.00,21.6,20.4,00.0,30.4,23.2,19.9,0000.0,0000.36,0000.24,0000.22
2022-12-29 07:26:00,,0813.1,4.97,0.00,21.6,20.3,00.0,30.4,23.2,19.8,0000.0,0000.34,0000.22,0000.20
2022-12-29 07:27:00,,0813.1,5.00,0.00,21.5,20.2,00.0,30.4,23.2,19.8,0000.0,0000.31,0000.20,0000.17
2022-12-29 07:28:00,,0813.1,5.03,0.00,21.5,20.1,00.0,30.4,23.2,19.8,0000.0,0000.30,0000.19,0000.16
2022-12-29 07:29:00,,0813.1,5.00,0.00,21.5,20.0,00.0,30.4,23.1,19.8,0000.0,0000.30,0000.19,0000.16
2022-12-29 07:30:00,,0813.1,5.00,0.00,21.5,19.9,00.0,30.4,23.1,19.8,0000.0,0000.29,0000.19,0000.17
2022-12-29 07:31:00,,0813.2,5.01,0.00,21.4,19.9,00.0,30.4,23.0,19.8,0000.0,0000.30,0000.20,0000.17
2022-12-29 07:32:00,,0813.2,5.01,0.00,21.4,19.9,00.0,30.3,23.0,19.8,0000.0,0000.33,0000.22,0000.19
2022-12-29 07:33:00,,0813.2,5.03,0.00,21.5,21.0,00.0,30.3,23.3,19.7,0000.0,0000.34,0000.23,0000.20
2022-12-29 07:34:00,,0813.2,5.00,0.00,21.6,22.1,00.0,30.3,23.6,19.5,0000.0,0000.31,0000.23,0000.20
2022-12-29 07:35:00,,0813.2,4.96,0.00,21.8,22.7,00.0,30.4,23.9,19.4,0000.0,0000.31,0000.23,0000.21
2022-12-29 07:36:00,,0813.2,5.00,0.00,21.8,22.2,00.0,30.4,23.8,19.2,0000.0,0000.31,0000.24,0000.23
2022-12-29 07:37:00,,0813.2,5.03,0.00,21.8,21.7,00.0,30.5,23.7,19.2,0000.0,0000.33,0000.25,0000.24
2022-12-29 07:38:00,,0813.2,5.02,0.00,21.8,21.4,00.0,30.5,23.7,19.2,0000.0,0000.33,0000.26,0000.24
2022-12-29 07:39:00,,0813.2,5.00,0.00,21.8,21.1,00.0,30.6,23.6,19.2,0000.0,0000.33,0000.26,0000.24
2022-12-29 07:40:00,,0813.2,4.96,0.00,21.8,20.9,00.0,30.6,23.5,19.1,0000.0,0000.37,0000.27,0000.25
2022-12-29 07:41:00,,0813.2,5.06,0.00,21.8,20.7,00.0,30.6,23.5,19.2,0000.0,0000.38,0000.28,0000.26
2022-12-29 07:42:00,,0813.2,5.02,0.00,21.8,20.6,00.0,30.6,23.5,19.2,0000.0,0000.40,0000.29,0000.27
2022-12-29 07:43:00,,0813.1,4.99,0.00,21.8,20.5,00.0,30.6,23.4,19.2,0000.0,0000.39,0000.29,0000.27
2022-12-29 07:44:00,,0813.1,4.99,0.00,21.7,20.4,00.0,30.6,23.4,19.2,0000.0,0000.41,0000.30,0000.28
2022-12-29 07:45:00,,0813.2,4.98,0.00,21.7,20.4,00.0,30.6,23.4,19.2,0000.0,0000.43,0000.32,0000.29
2022-12-29 07:46:00,,0813.2,4.98,0.00,21.7,20.3,00.0,30.6,23.3,19.2,0000.0,0000.46,0000.34,0000.31
2022-12-29 07:47:00,,0813.2,4.97,0.00,21.7,20.3,00.0,30.6,23.3,19.2,0000.0,0000.48,0000.35,0000.32
2022-12-29 07:48:00,,0813.2,4.97,0.00,21.7,20.3,00.0,30.6,23.3,19.2,0000.0,0000.50,0000.37,0000.34
2022-12-29 07:49:00,,0813.2,5.02,0.00,21.6,20.2,00.0,30.6,23.3,19.5,0000.0,0000.52,0000.38,0000.35
2022-12-29 07:50:00,,0813.3,5.02,0.00,21.6,20.2,00.0,30.6,23.2,19.5,0000.0,0000.54,0000.40,0000.37
2022-12-29 07:51:00,,0813.2,4.99,0.00,21.6,20.1,00.0,30.6,23.2,19.4,0000.0,0000.56,0000.43,0000.40
2022-12-29 07:52:00,,0813.2,4.97,0.00,21.6,20.1,00.0,30.6,23.2,19.3,0000.0,0000.59,0000.45,0000.42
2022-12-29 07:53:00,,0813.3,4.98,0.00,21.6,20.1,00.0,30.5,23.2,19.3,0000.0,0000.61,0000.46,0000.44
2022-12-29 07:54:00,,0813.2,5.00,0.00,21.6,20.3,00.0,30.5,23.3,19.3,0000.0,0000.67,0000.49,0000.45
2022-12-29 07:55:00,,0813.3,5.01,0.00,21.7,21.2,00.0,30.5,23.5,19.2,0000.0,0000.70,0000.52,0000.48
2022-12-29 07:56:00,,0813.3,5.01,0.00,21.8,22.3,00.0,30.5,23.8,19.0,0000.0,0000.73,0000.53,0000.49
2022-12-29 07:57:00,,0813.3,4.99,0.00,21.9,22.7,00.0,30.6,24.0,18.9,0000.0,0000.78,0000.56,0000.51
2022-12-29 07:58:00,,0813.3,4.98,0.00,22.0,22.2,00.0,30.6,23.9,18.8,0000.0,0000.79,0000.57,0000.53
2022-12-29 07:59:00,,0813.3,4.98,0.00,22.0,21.7,00.0,30.7,23.8,18.8,0000.0,0000.80,0000.58,0000.53
